Location: Bellflower
(33.8817°N, 118.1170°W)
Time: 14:04:00
(UTC+00:00)

NOSS 3-4 (C) - Pass Details

Date: 23 November 2020
Orbit: 879 x 1333 km, 63.4° (Epoch: 31 December)

Event Time Altitude Azimuth Distance (km) Brightness Sun altitude
Rises 13:35:49 0° 228° (SW) 3,464 6.1 -11.9°
Reaches altitude 10° 13:38:24 10° 234° (SW) 2,527 5.3 -11.4°
Maximum altitude 13:43:55 44° 306° (NW) 1,213 3.6 -10.3°
Drops below altitude 10° 13:49:44 10° 19° (NNE) 2,654 5.8 -9.2°
Sets 13:52:30 0° 25° (NNE) 3,657 6.6 -8.6°
